Location: Newark
(42.8481°N, 0.4872°E)
Time: 07:32:14
(UTC+00:00)

SR - Pass Details

Date: 31 October 2020
Orbit: 579 x 876 km, 66.7° (Epoch: 29 November)

Event Time Altitude Azimuth Distance (km) Brightness Sun altitude
Rises 01:40:44 0° 217° (SW) 2,782 - -51.6°
Reaches altitude 10° 01:42:56 10° 220° (SW) 1,888 - -51.3°
Maximum altitude 01:47:07 65° 302° (WNW) 648 - -50.7°
Drops below altitude 10° 01:51:29 10° 26° (NNE) 1,967 - -50.1°
Sets 01:53:49 0° 29° (NNE) 2,911 - -49.7°
